Weather History for Clinton, OK

Change the Weather History Date:

Friday, April 12, 2013

  Actual Average (KCSM) Record (KCSM)
Temperature  
Mean Temperature 46 °F -  
Max Temperature 60 °F 68 °F 87 °F (2006)
Min Temperature 33 °F 44 °F 23 °F (1997)
Degree Days  
Heating Degree Days 18    
Moisture  
Dew Point 35 °F    
Average Humidity 63    
Maximum Humidity 93    
Minimum Humidity 39    
Precipitation  
Precipitation 0.00 in - - ()
Sea Level Pressure  
Sea Level Pressure 29.95 in    
Wind  
Wind Speed 5 mph (NE)    
Max Wind Speed 20 mph    
Max Gust Speed 15 mph    
Visibility 10 miles    
Events      
Averages and records for this station are not official NWS values.
T = Trace of Precipitation, MM = Missing Value Source: NWS Daily Summary

Daily Weather History Graph

Daily Weather History Graph

Search for Another Location

Airport:

Trip Planner

Search our weather history database for the weather conditions in past years. The results will help you decide how hot, cold, wet, or windy it might be!

Date:

Astronomy

Apr. 12, 2013 Rise Set
Actual Time 7:06 AM CDT 8:06 PM CDT
Civil Twilight 6:40 AM CDT 8:32 PM CDT
Nautical Twilight 6:09 AM CDT 9:03 PM CDT
Astronomical Twilight 5:37 AM CDT 9:35 PM CDT
Moon 8:22 AM CDT (4/12) 10:33 PM CDT (4/12)
Length of Visible Light 13h 52m
Length of Day
12h 59m
Waxing Crescent, 5% of the Moon is Illuminated
Apr 12
Waxing Crescent
Apr 18
First Quarter
Apr 25
Full
May 2
Last Quarter
May 9
New

Hourly Weather History & Observations

Time (CDT) Temp. Windchill Dew Point Humidity Pressure Visibility Wind Dir Wind Speed Gust Speed Precip Events Conditions
12:15 AM 46.4 °F - 33.8 °F 62% 29.85 in 10.0 mi Calm Calm - N/A   Clear
12:35 AM 41.0 °F 38.0 °F 33.8 °F 76% 29.85 in 10.0 mi NW 4.6 mph - N/A   Clear
12:55 AM 42.8 °F - 33.8 °F 70% 29.85 in 10.0 mi Calm Calm - N/A   Clear
1:15 AM 44.6 °F - 33.8 °F 66% 29.85 in 10.0 mi Calm Calm - N/A   Clear
1:35 AM 42.8 °F 41.1 °F 33.8 °F 70% 29.86 in 10.0 mi West 3.5 mph - N/A   Clear
1:55 AM 41.0 °F 36.4 °F 32.0 °F 70% 29.87 in 10.0 mi WNW 6.9 mph - N/A   Clear
2:15 AM 44.6 °F 42.2 °F 33.8 °F 66% 29.87 in 10.0 mi WNW 4.6 mph - N/A   Clear
2:35 AM 44.6 °F - 32.0 °F 61% 29.88 in 10.0 mi Calm Calm - N/A   Clear
3:15 AM 42.8 °F 40.1 °F 32.0 °F 66% 29.88 in 10.0 mi NW 4.6 mph - N/A   Clear
3:35 AM 41.0 °F - 32.0 °F 70% 29.89 in 10.0 mi Calm Calm - N/A   Clear
3:55 AM 41.0 °F 38.0 °F 32.0 °F 70% 29.89 in 10.0 mi NNW 4.6 mph - N/A   Clear
4:15 AM 37.4 °F 32.8 °F 32.0 °F 81% 29.90 in 10.0 mi NNW 5.8 mph - N/A   Clear
4:35 AM 37.4 °F 32.8 °F 32.0 °F 81% 29.90 in 10.0 mi North 5.8 mph - N/A   Clear
4:55 AM 35.6 °F 31.7 °F 32.0 °F 87% 29.91 in 10.0 mi NW 4.6 mph - N/A   Clear
5:15 AM 35.6 °F 31.7 °F 32.0 °F 87% 29.92 in 10.0 mi NW 4.6 mph - N/A   Clear
5:35 AM 37.4 °F 33.8 °F 32.0 °F 81% 29.92 in 10.0 mi North 4.6 mph - N/A   Clear
5:55 AM 37.4 °F 30.8 °F 32.0 °F 81% 29.93 in 10.0 mi NNE 9.2 mph - N/A   Clear
6:15 AM 37.4 °F 31.4 °F 32.0 °F 81% 29.94 in 10.0 mi NNE 8.1 mph - N/A   Clear
6:35 AM 35.6 °F 28.0 °F 32.0 °F 87% 29.95 in 10.0 mi North 10.4 mph - N/A   Clear
6:55 AM 35.6 °F 32.8 °F 32.0 °F 87% 29.96 in 10.0 mi NE 3.5 mph - N/A   Clear
7:15 AM 35.6 °F 32.8 °F 32.0 °F 87% 29.96 in 10.0 mi NNE 3.5 mph - N/A   Clear
7:35 AM 33.8 °F 27.0 °F 32.0 °F 93% 29.96 in 10.0 mi NNE 8.1 mph - N/A   Clear
7:55 AM 35.6 °F 28.6 °F 32.0 °F 87% 29.96 in 10.0 mi NNE 9.2 mph - N/A   Clear
8:15 AM 37.4 °F 32.1 °F 32.0 °F 81% 29.97 in 10.0 mi NNE 6.9 mph - N/A   Clear
8:35 AM 37.4 °F 33.8 °F 32.0 °F 81% 29.97 in 10.0 mi NE 4.6 mph - N/A   Clear
9:15 AM 41.0 °F 39.0 °F 32.0 °F 70% 29.98 in 10.0 mi ENE 3.5 mph - N/A   Clear
9:35 AM 41.0 °F 38.0 °F 32.0 °F 70% 29.99 in 10.0 mi NE 4.6 mph - N/A   Clear
9:55 AM 42.8 °F - 33.8 °F 70% 30.00 in 10.0 mi Calm Calm - N/A   Clear
10:15 AM 42.8 °F - 33.8 °F 70% 30.01 in 10.0 mi Calm Calm - N/A   Clear
10:35 AM 42.8 °F - 33.8 °F 70% 30.03 in 10.0 mi Calm Calm - N/A   Clear
10:55 AM 44.6 °F - 33.8 °F 66% 30.04 in 10.0 mi Calm Calm - N/A   Clear
11:15 AM 46.4 °F - 33.8 °F 62% 30.05 in 10.0 mi Calm Calm - N/A   Clear
11:35 AM 46.4 °F - 32.0 °F 57% 30.05 in 10.0 mi Calm Calm - N/A   Clear
11:55 AM 50.0 °F - 33.8 °F 54% 30.02 in 10.0 mi NE 9.2 mph - N/A   Clear
12:15 PM 51.8 °F - 33.8 °F 50% 30.00 in 10.0 mi NNE 19.6 mph - N/A   Clear
12:35 PM 51.8 °F - 33.8 °F 50% 30.01 in 10.0 mi NE 11.5 mph 15.0 mph N/A   Clear
12:55 PM 51.8 °F - 33.8 °F 50% 30.04 in 10.0 mi NNE 4.6 mph - N/A   Clear
1:15 PM 53.6 °F - 33.8 °F 47% 30.03 in 10.0 mi ENE 4.6 mph - N/A   Clear
1:35 PM 53.6 °F - 33.8 °F 47% 30.02 in 10.0 mi NNE 5.8 mph - N/A   Clear
1:55 PM 53.6 °F - 33.8 °F 47% 30.00 in 10.0 mi ENE 5.8 mph - N/A   Clear
2:15 PM 55.4 °F - 33.8 °F 44% 29.99 in 10.0 mi East 4.6 mph - N/A   Clear
2:35 PM 55.4 °F - 35.6 °F 47% 29.99 in 10.0 mi NE 8.1 mph - N/A   Clear
2:55 PM 57.2 °F - 35.6 °F 44% 29.99 in 10.0 mi East 5.8 mph - N/A   Clear
3:15 PM 57.2 °F - 33.8 °F 41% 29.98 in 10.0 mi ENE 3.5 mph - N/A   Clear
3:35 PM 59.0 °F - 35.6 °F 42% 29.97 in 10.0 mi NE 5.8 mph - N/A   Clear
3:55 PM 59.0 °F - 33.8 °F 39% 29.96 in 10.0 mi East 5.8 mph - N/A   Clear
4:15 PM 59.0 °F - 35.6 °F 42% 29.95 in 10.0 mi ENE 8.1 mph - N/A   Clear
4:35 PM 60.8 °F - 35.6 °F 39% 29.94 in 10.0 mi ENE 8.1 mph - N/A   Clear
4:55 PM 60.8 °F - 35.6 °F 39% 29.93 in 10.0 mi ENE 8.1 mph - N/A   Clear
5:15 PM 60.8 °F - 37.4 °F 42% 29.93 in 10.0 mi ENE 10.4 mph - N/A   Clear
5:35 PM 60.8 °F - 37.4 °F 42% 29.92 in 10.0 mi ENE 10.4 mph - N/A   Clear
5:55 PM 59.0 °F - 37.4 °F 45% 29.92 in 10.0 mi East 9.2 mph - N/A   Clear
6:15 PM 59.0 °F - 37.4 °F 45% 29.92 in 10.0 mi East 9.2 mph - N/A   Clear
6:35 PM 59.0 °F - 37.4 °F 45% 29.92 in 10.0 mi East 10.4 mph - N/A   Clear
6:55 PM 59.0 °F - 39.2 °F 48% 29.93 in 10.0 mi East 8.1 mph - N/A   Clear
7:15 PM 55.4 °F - 39.2 °F 54% 29.94 in 10.0 mi ENE 9.2 mph - N/A   Clear
7:35 PM 55.4 °F - 41.0 °F 58% 29.94 in 10.0 mi ENE 8.1 mph - N/A   Clear
7:55 PM 53.6 °F - 41.0 °F 62% 29.94 in 10.0 mi ENE 8.1 mph - N/A   Clear
8:15 PM 51.8 °F - 37.4 °F 58% 29.94 in 10.0 mi ENE 9.2 mph - N/A   Clear
8:35 PM 50.0 °F - 39.2 °F 66% 29.94 in 10.0 mi ENE 9.2 mph - N/A   Clear
8:55 PM 50.0 °F - 39.2 °F 66% 29.94 in 10.0 mi ENE 10.4 mph - N/A   Clear
9:15 PM 50.0 °F - 37.4 °F 62% 29.93 in 10.0 mi ENE 10.4 mph - N/A   Clear
9:35 PM 50.0 °F - 37.4 °F 62% 29.94 in 10.0 mi ENE 11.5 mph - N/A   Clear
9:55 PM 50.0 °F - 37.4 °F 62% 29.95 in 10.0 mi ENE 9.2 mph - N/A   Clear
10:15 PM 50.0 °F - 37.4 °F 62% 29.95 in 10.0 mi ENE 10.4 mph - N/A   Clear
10:35 PM 48.2 °F - 37.4 °F 66% 29.95 in 10.0 mi ENE 9.2 mph - N/A   Clear
10:55 PM 46.4 °F 41.9 °F 37.4 °F 71% 29.95 in 10.0 mi NE 9.2 mph - N/A   Clear
11:15 PM 46.4 °F 41.5 °F 37.4 °F 71% 29.96 in 10.0 mi ENE 10.4 mph - N/A   Clear
11:35 PM 46.4 °F 41.5 °F 37.4 °F 71% 29.97 in 10.0 mi ENE 10.4 mph - N/A   Clear
11:55 PM 46.4 °F 41.5 °F 35.6 °F 66% 29.97 in 10.0 mi ENE 10.4 mph - N/A   Clear